Regional Weather Roundup
Issued by NWS

Home | Current Version | Previous Version | Text Only | Print | Product List | Glossary On
Versions: 1 2 3 4 5 6 7 8 9 10 11 12 13 14 15 16 17 18 19 20 21 22 23 24 25 26 27 28 29 30 31 32 33 34 35 36 37 38 39 40 41 42 43 44 45 46 47 48 49 50
950
ASUS43 KLMK 251910
RWRKY
KENTUCKY REGIONAL WEATHER ROUNDUP
NATIONAL WEATHER SERVICE LOUISVILLE KY
300 PM EDT WED APR 25 2018

NOTE "FAIR" INDICATES FEW OR NO CLOUDS BELOW 12,000 FEET
WITH NO SIGNIFICANT WEATHER AND/OR OBSTRUCTIONS TO VISIBILITY.

KYZ001>023-026-027-061>063-070>075-252000-
WESTERN AND SOUTH CENTRAL KENTUCKY

CITY           SKY/WX    TMP DP  RH WIND       PRES   REMARKS
PADUCAH        FAIR      71  52  50 VRB5      29.97F
HENDERSON      PTSUNNY   68  53  58 NE6       29.99F
OWENSBORO      FAIR      68  53  58 N8        29.98F
HOPKINSVILLE   PTSUNNY   67  51  56 NW3       29.98F
BOWLING GREEN  CLOUDY    68  51  54 CALM      29.97F
GLASGOW        PTSUNNY   65  51  60 N9        29.97F
$$

KYZ024-025-028>034-038-045-046-053-252000-
NORTH CENTRAL KENTUCKY

CITY           SKY/WX    TMP DP  RH WIND       PRES   REMARKS
LOUISVILLE/SDF PTSUNNY   67  49  52 N12G24    29.96S
LOUISVILLE/LOU PTSUNNY   68  53  58 NW12G17   29.96S
FORT KNOX      PTSUNNY   66  49  55 NW10      29.97F
$$

KYZ035>037-039>044-047>052-055>060-089>105-252000-
NORTHEAST KENTUCKY

CITY           SKY/WX    TMP DP  RH WIND       PRES   REMARKS
LEXINGTON      CLOUDY    60  50  69 NW10      29.95S
COVINGTON      CLOUDY    62  50  64 N10       29.94S
FRANKFORT      PTSUNNY   63  48  58 NW8       29.94S
$$

KYZ054-064>069-076>088-106>120-252000-
SOUTHEAST KENTUCKY

CITY           SKY/WX    TMP DP  RH WIND       PRES   REMARKS
JACKSON        CLOUDY    56  51  84 NW8       29.91F
LONDON         CLOUDY    57  51  80 NW8G18    29.94S
SOMERSET       CLOUDY    57  50  77 W9        29.97R
MIDDLESBORO    CLOUDY    57  52  84 CALM      29.92F
MONTICELLO     NOT AVBL
$$





USA.gov is the U.S. government's official web portal to all federal, state and local government web resources and services.